,,,PA_Meas_PMT16A,,PR_Meas_QMR101_102,,RH_Meas_QMH101,,SR_Meas_QMS101,,TA_Meas_QMH101,,GenWind,,GenWind,
date,time,status,PA,status,PR,status,RH,status,SR,status,TA,status,DirAvg,status,SpdAvg,
2011-03-14, 00:00:04,VALID,999.666,VALID,0,VALID,92.7991,VALID,0,VALID,23.4866,VALID,128,VALID,0.217187,
2011-03-14, 00:01:04,VALID,999.64,VALID,0,VALID,92.7685,VALID,0,VALID,23.4671,VALID,128,VALID,0.242188,
2011-03-14, 00:02:04,VALID,999.593,VALID,0,VALID,92.7685,VALID,0,VALID,23.4671,VALID,128,VALID,0.143359,
2011-03-14, 00:03:04,VALID,999.547,VALID,0,VALID,92.7914,VALID,0,VALID,23.4475,VALID,128,VALID,0.435937,
2011-03-14, 00:04:04,VALID,999.503,VALID,0,VALID,92.7838,VALID,0,VALID,23.4475,VALID,128,VALID,0.323047,
2011-03-14, 00:05:04,VALID,999.492,VALID,0,VALID,92.7762,VALID,0,VALID,23.4458,VALID,128,VALID,0.349609,
2011-03-14, 00:06:04,VALID,999.471,VALID,0,VALID,92.7991,VALID,0,VALID,23.4866,VALID,130,VALID,0.535156,
2011-03-14, 00:07:04,VALID,999.447,VALID,0,VALID,92.7609,VALID,0,VALID,23.4866,VALID,161,VALID,0.629687,
2011-03-14, 00:08:04,VALID,999.434,VALID,0,VALID,92.7685,VALID,0,VALID,23.4866,VALID,161,VALID,0.70625,
2011-03-14, 00:09:04,VALID,999.406,VALID,0,VALID,92.7457,VALID,0,VALID,23.4866,VALID,161,VALID,0.369141,
2011-03-14, 00:10:04,VALID,999.364,VALID,0,VALID,92.7457,VALID,0,VALID,23.4866,VALID,161,VALID,0.0675781,
2011-03-14, 00:11:04,VALID,999.301,VALID,0,VALID,92.7228,VALID,0,VALID,23.4866,VALID,161,VALID,0.204688,
2011-03-14, 00:12:04,VALID,999.247,VALID,0,VALID,92.7228,VALID,0,VALID,23.4671,VALID,161,VALID,0.454297,
2011-03-14, 00:13:04,VALID,999.184,VALID,0,VALID,92.7075,VALID,0,VALID,23.4475,VALID,161,VALID,0.642969,
2011-03-14, 00:14:04,VALID,999.146,VALID,0,VALID,92.6694,VALID,0,VALID,23.4475,VALID,161,VALID,0.511719,
2011-03-14, 00:15:04,VALID,999.153,VALID,0,VALID,92.6846,VALID,0,VALID,23.4475,VALID,161,VALID,0.284766,
2011-03-14, 00:16:04,VALID,999.117,VALID,0,VALID,92.6541,VALID,0,VALID,23.4475,VALID,161,VALID,0.264453,
2011-03-14, 00:17:04,VALID,999.096,VALID,0,VALID,92.6465,VALID,0,VALID,23.4475,VALID,161,VALID,0.135937,
2011-03-14, 00:18:04,VALID,999.09,VALID,0,VALID,92.616,VALID,0,VALID,23.428,VALID,161,VALID,0.01875,
2011-03-14, 00:19:04,VALID,999.074,VALID,0,VALID,92.6388,VALID,0,VALID,23.428,VALID,161,VALID,0.189453,
2011-03-14, 00:20:04,VALID,999.055,VALID,0,VALID,92.6312,VALID,0,VALID,23.428,VALID,161,VALID,0.174219,
2011-03-14, 00:21:04,VALID,999.02,VALID,0,VALID,92.6236,VALID,0,VALID,23.428,VALID,161,VALID,0,
2011-03-14, 00:22:04,VALID,998.977,VALID,0,VALID,92.5854,VALID,0,VALID,23.428,VALID,161,VALID,0,
2011-03-14, 00:23:04,VALID,998.942,VALID,0,VALID,92.5931,VALID,0,VALID,23.3872,VALID,161,VALID,0,
2011-03-14, 00:24:04,VALID,998.944,VALID,0,VALID,92.5702,VALID,0,VALID,23.389,VALID,161,VALID,0.661328,
2011-03-14, 00:25:04,VALID,998.888,VALID,0,VALID,92.5778,VALID,0,VALID,23.4085,VALID,161,VALID,0.544922,
2011-03-14, 00:26:04,VALID,998.882,VALID,0,VALID,92.5778,VALID,0,VALID,23.3872,VALID,161,VALID,0.571094,
2011-03-14, 00:27:04,VALID,998.812,VALID,0,VALID,92.5702,VALID,0,VALID,23.4085,VALID,152,VALID,0.601563,
2011-03-14, 00:28:04,VALID,998.797,VALID,0,VALID,92.5244,VALID,0,VALID,23.4085,VALID,143,VALID,0.742969,
2011-03-14, 00:29:04,VALID,998.773,VALID,0,VALID,92.5244,VALID,0,VALID,23.4085,VALID,143,VALID,0.654688,
2011-03-14, 00:30:04,VALID,998.747,VALID,0,VALID,92.5091,VALID,0,VALID,23.4085,VALID,143,VALID,0.589063,
2011-03-14, 00:31:04,VALID,998.729,VALID,0,VALID,92.4939,VALID,0,VALID,23.4067,VALID,143,VALID,0.661719,
2011-03-14, 00:32:04,VALID,998.736,VALID,0,VALID,92.4863,VALID,0,VALID,23.428,VALID,143,VALID,0.642578,
2011-03-14, 00:33:04,VALID,998.709,VALID,0,VALID,92.4481,VALID,0,VALID,23.4067,VALID,143,VALID,0.633984,
2011-03-14, 00:34:04,VALID,998.728,VALID,0,VALID,92.4557,VALID,0,VALID,23.428,VALID,143,VALID,0.691406,
2011-03-14, 00:35:04,VALID,998.705,VALID,0,VALID,92.4786,VALID,0,VALID,23.428,VALID,143,VALID,0.613672,
2011-03-14, 00:36:04,VALID,998.671,VALID,0,VALID,92.4557,VALID,0,VALID,23.4085,VALID,131,VALID,0.639063,
2011-03-14, 00:37:04,VALID,998.685,VALID,0,VALID,92.4557,VALID,0,VALID,23.4085,VALID,130,VALID,0.635938,
2011-03-14, 00:38:04,VALID,998.645,VALID,0,VALID,92.4557,VALID,0,VALID,23.3872,VALID,130,VALID,0.311328,
2011-03-14, 00:39:04,VALID,998.632,VALID,0,VALID,92.471,VALID,0,VALID,23.389,VALID,130,VALID,0.158984,
2011-03-14, 00:40:04,VALID,998.638,VALID,0,VALID,92.4557,VALID,0,VALID,23.389,VALID,130,VALID,0.230078,
2011-03-14, 00:41:04,VALID,998.632,VALID,0,VALID,92.4786,VALID,0,VALID,23.389,VALID,130,VALID,0.270312,
2011-03-14, 00:42:04,VALID,998.606,VALID,0,VALID,92.4939,VALID,0,VALID,23.3695,VALID,130,VALID,0.476953,
2011-03-14, 00:43:04,VALID,998.63,VALID,0,VALID,92.4863,VALID,0,VALID,23.389,VALID,130,VALID,0.655078,
2011-03-14, 00:44:04,VALID,998.653,VALID,0,VALID,92.5168,VALID,0,VALID,23.389,VALID,105,VALID,0.751953,
2011-03-14, 00:45:04,VALID,998.641,VALID,0,VALID,92.5015,VALID,0,VALID,23.389,VALID,96,VALID,0.773047,
2011-03-14, 00:46:04,VALID,998.613,VALID,0,VALID,92.532,VALID,0,VALID,23.4085,VALID,75,VALID,0.751562,
2011-03-14, 00:47:04,VALID,998.638,VALID,0,VALID,92.5091,VALID,0,VALID,23.389,VALID,75,VALID,0.642578,
2011-03-14, 00:48:04,VALID,998.619,VALID,0,VALID,92.5168,VALID,0,VALID,23.4085,VALID,69,VALID,0.576172,
2011-03-14, 00:49:04,VALID,998.614,VALID,0,VALID,92.5397,VALID,0,VALID,23.3677,VALID,69,VALID,0.421484,
2011-03-14, 00:50:04,VALID,998.591,VALID,0,VALID,92.5397,VALID,0,VALID,23.3872,VALID,69,VALID,0.395703,
2011-03-14, 00:51:04,VALID,998.583,VALID,0,VALID,92.532,VALID,0,VALID,23.389,VALID,69,VALID,0.480078,
2011-03-14, 00:52:04,VALID,998.58,VALID,0,VALID,92.5702,VALID,0,VALID,23.3872,VALID,69,VALID,0.502734,
2011-03-14, 00:53:04,VALID,998.562,VALID,0,VALID,92.5702,VALID,0,VALID,23.4067,VALID,61,VALID,0.471094,
2011-03-14, 00:54:04,VALID,998.551,VALID,0,VALID,92.5778,VALID,0,VALID,23.4085,VALID,61,VALID,0.432422,
2011-03-14, 00:55:04,VALID,998.541,VALID,0,VALID,92.6083,VALID,0,VALID,23.428,VALID,61,VALID,0.467578,
2011-03-14, 00:56:04,VALID,998.544,VALID,0,VALID,92.6007,VALID,0,VALID,23.4067,VALID,61,VALID,0.358594,
2011-03-14, 00:57:04,VALID,998.523,VALID,0,VALID,92.6007,VALID,0,VALID,23.3872,VALID,62,VALID,0.594922,
2011-03-14, 00:58:04,VALID,998.554,VALID,0,VALID,92.6007,VALID,0,VALID,23.428,VALID,62,VALID,0.492188,
2011-03-14, 00:59:04,VALID,998.529,VALID,0,VALID,92.6312,VALID,0,VALID,23.4475,VALID,62,VALID,0.3125,
2011-03-14, 01:00:04,VALID,998.533,VALID,0,VALID,92.6541,VALID,0,VALID,23.428,VALID,62,VALID,0.314063,
2011-03-14, 01:01:04,VALID,998.559,VALID,0,VALID,92.6388,VALID,0,VALID,23.428,VALID,62,VALID,0,
2011-03-14, 01:02:04,VALID,998.581,VALID,0,VALID,92.616,VALID,0,VALID,23.428,VALID,62,VALID,0,
2011-03-14, 01:03:04,VALID,998.575,VALID,0,VALID,92.6465,VALID,0,VALID,23.4475,VALID,62,VALID,0,
2011-03-14, 01:04:04,VALID,998.615,VALID,0,VALID,92.6541,VALID,0,VALID,23.4475,VALID,62,VALID,0.028125,
2011-03-14, 01:05:04,VALID,998.669,VALID,0,VALID,92.6465,VALID,0,VALID,23.4671,VALID,62,VALID,0.409375,
2011-03-14, 01:06:04,VALID,998.674,VALID,0,VALID,92.6694,VALID,0,VALID,23.4458,VALID,62,VALID,0.555078,
2011-03-14, 01:07:04,VALID,998.708,VALID,0,VALID,92.6465,VALID,0,VALID,23.4653,VALID,62,VALID,0.525391,
2011-03-14, 01:08:04,VALID,998.698,VALID,0,VALID,92.6465,VALID,0,VALID,23.4653,VALID,110,VALID,0.616797,
2011-03-14, 01:09:04,VALID,998.711,VALID,0,VALID,92.6007,VALID,0,VALID,23.4866,VALID,127,VALID,0.83125,
2011-03-14, 01:10:04,VALID,998.659,VALID,0,VALID,92.5626,VALID,0,VALID,23.4848,VALID,128,VALID,0.876953,
2011-03-14, 01:11:04,VALID,998.673,VALID,0,VALID,92.532,VALID,0,VALID,23.5451,VALID,138,VALID,0.776953,
2011-03-14, 01:12:04,VALID,998.676,VALID,0,VALID,92.4863,VALID,0,VALID,23.5646,VALID,138,VALID,0.647266,
2011-03-14, 01:13:04,VALID,998.694,VALID,0,VALID,92.4557,VALID,0,VALID,23.5646,VALID,138,VALID,0.641406,
2011-03-14, 01:14:04,VALID,998.682,VALID,0,VALID,92.4481,VALID,0,VALID,23.5841,VALID,138,VALID,0.59375,
2011-03-14, 01:15:04,VALID,998.677,VALID,0,VALID,92.41,VALID,0,VALID,23.6036,VALID,138,VALID,0.648438,
2011-03-14, 01:16:04,VALID,998.654,VALID,0,VALID,92.3947,VALID,0,VALID,23.5823,VALID,138,VALID,0.621484,
2011-03-14, 01:17:04,VALID,998.636,VALID,0,VALID,92.3871,VALID,0,VALID,23.6036,VALID,138,VALID,0.532031,
2011-03-14, 01:18:04,VALID,998.619,VALID,0,VALID,92.3871,VALID,0,VALID,23.6036,VALID,138,VALID,0.469531,
2011-03-14, 01:19:04,VALID,998.599,VALID,0,VALID,92.3642,VALID,0,VALID,23.5823,VALID,138,VALID,0.480859,
2011-03-14, 01:20:04,VALID,998.597,VALID,0,VALID,92.3642,VALID,0,VALID,23.5841,VALID,138,VALID,0.510547,
2011-03-14, 01:21:04,VALID,998.566,VALID,0,VALID,92.3413,VALID,0,VALID,23.5841,VALID,138,VALID,0.697656,
2011-03-14, 01:22:04,VALID,998.552,VALID,0,VALID,92.3337,VALID,0,VALID,23.6036,VALID,140,VALID,0.677734,
2011-03-14, 01:23:04,VALID,998.525,VALID,0,VALID,92.326,VALID,0,VALID,23.6036,VALID,180,VALID,1.18164,
2011-03-14, 01:24:04,VALID,998.516,VALID,0,VALID,92.326,VALID,0,VALID,23.6622,VALID,190,VALID,1.33164,
2011-03-14, 01:25:04,VALID,998.523,VALID,0,VALID,92.326,VALID,0,VALID,23.7012,VALID,203,VALID,1.08203,
2011-03-14, 01:26:04,VALID,998.505,VALID,0,VALID,92.326,VALID,0,VALID,23.6994,VALID,208,VALID,1.01563,
2011-03-14, 01:27:04,VALID,998.493,VALID,0,VALID,92.2803,VALID,0,VALID,23.7207,VALID,197,VALID,0.936719,
2011-03-14, 01:28:04,VALID,998.492,VALID,0,VALID,92.2192,VALID,0,VALID,23.7189,VALID,191,VALID,0.453516,
2011-03-14, 01:29:04,VALID,998.48,VALID,0,VALID,92.1734,VALID,0,VALID,23.7402,VALID,211,VALID,0.0519531,
2011-03-14, 01:30:04,VALID,998.457,VALID,0,VALID,92.1353,VALID,0,VALID,23.7207,VALID,232,VALID,0.792578,
2011-03-14, 01:31:04,VALID,998.409,VALID,0,VALID,92.0743,VALID,0.112286,VALID,23.7189,VALID,248,VALID,0.842188,
2011-03-14, 01:32:04,VALID,998.414,VALID,0,VALID,92.0666,VALID,0,VALID,23.7012,VALID,248,VALID,0.313672,
2011-03-14, 01:33:04,VALID,998.385,VALID,0,VALID,92.0361,VALID,0,VALID,23.6817,VALID,248,VALID,0.791797,
2011-03-14, 01:34:04,VALID,998.357,VALID,0,VALID,92.0361,VALID,0,VALID,23.6409,VALID,241,VALID,0.871484,
2011-03-14, 01:35:04,VALID,998.354,VALID,0,VALID,92.0132,VALID,0,VALID,23.6232,VALID,239,VALID,0.7125,
2011-03-14, 01:36:04,VALID,998.37,VALID,0,VALID,91.9903,VALID,0,VALID,23.6036,VALID,239,VALID,0.740234,
2011-03-14, 01:37:04,VALID,998.346,VALID,0,VALID,92.0056,VALID,0,VALID,23.5841,VALID,239,VALID,0.652734,
2011-03-14, 01:38:04,VALID,998.328,VALID,0,VALID,92.0056,VALID,0,VALID,23.5841,VALID,239,VALID,0.517187,
2011-03-14, 01:39:04,VALID,998.313,VALID,0,VALID,92.0209,VALID,0,VALID,23.5841,VALID,239,VALID,0.282031,
2011-03-14, 01:40:04,VALID,998.309,VALID,0,VALID,92.0437,VALID,0,VALID,23.5628,VALID,239,VALID,0.194531,
2011-03-14, 01:41:04,VALID,998.29,VALID,0,VALID,92.0819,VALID,0,VALID,23.5628,VALID,239,VALID,0.207031,
2011-03-14, 01:42:04,VALID,998.27,VALID,0,VALID,92.0971,VALID,0,VALID,23.5646,VALID,239,VALID,0.237109,
2011-03-14, 01:43:04,VALID,998.281,VALID,0,VALID,92.1124,VALID,0,VALID,23.5646,VALID,239,VALID,0.314063,
2011-03-14, 01:44:04,VALID,998.274,VALID,0,VALID,92.1429,VALID,0,VALID,23.5646,VALID,239,VALID,0.179688,
2011-03-14, 01:45:04,VALID,998.268,VALID,0,VALID,92.1811,VALID,0,VALID,23.5238,VALID,239,VALID,0.550391,
2011-03-14, 01:46:04,VALID,998.242,VALID,0,VALID,92.204,VALID,0,VALID,23.5256,VALID,239,VALID,0.463672,
2011-03-14, 01:47:04,VALID,998.25,VALID,0,VALID,92.2268,VALID,0,VALID,23.5256,VALID,239,VALID,0.491797,
2011-03-14, 01:48:04,VALID,998.262,VALID,0,VALID,92.2803,VALID,0,VALID,23.5061,VALID,239,VALID,0.478516,
2011-03-14, 01:49:04,VALID,998.221,VALID,0,VALID,92.3184,VALID,0,VALID,23.4653,VALID,239,VALID,0.371875,
2011-03-14, 01:50:04,VALID,998.21,VALID,0,VALID,92.3413,VALID,0,VALID,23.4671,VALID,239,VALID,0.303125,
2011-03-14, 01:51:04,VALID,998.163,VALID,0,VALID,92.3794,VALID,0,VALID,23.4671,VALID,239,VALID,0.0117188,
2011-03-14, 01:52:04,VALID,998.121,VALID,0,VALID,92.41,VALID,0,VALID,23.4475,VALID,239,VALID,0,
2011-03-14, 01:53:04,VALID,998.097,VALID,0,VALID,92.4557,VALID,0,VALID,23.4475,VALID,239,VALID,0,
2011-03-14, 01:54:04,VALID,998.072,VALID,0,VALID,92.4863,VALID,0,VALID,23.4475,VALID,239,VALID,0,
2011-03-14, 01:55:04,VALID,998.031,VALID,0,VALID,92.5015,VALID,0,VALID,23.4263,VALID,239,VALID,0,
2011-03-14, 01:56:04,VALID,998.025,VALID,0,VALID,92.5473,VALID,0.112286,VALID,23.4263,VALID,239,VALID,0.302344,
2011-03-14, 01:57:04,VALID,998.012,VALID,0,VALID,92.5626,VALID,0,VALID,23.4067,VALID,239,VALID,0.438281,
2011-03-14, 01:58:04,VALID,997.989,VALID,0,VALID,92.5778,VALID,0,VALID,23.4085,VALID,239,VALID,0.224609,
2011-03-14, 01:59:04,VALID,997.958,VALID,0,VALID,92.616,VALID,0,VALID,23.389,VALID,239,VALID,0.0875,
2011-03-14, 02:00:04,VALID,997.992,VALID,0,VALID,92.6388,VALID,0,VALID,23.3872,VALID,239,VALID,0,
2011-03-14, 02:01:04,VALID,997.956,VALID,0,VALID,92.6541,VALID,0,VALID,23.3872,VALID,239,VALID,0,
2011-03-14, 02:02:04,VALID,997.959,VALID,0,VALID,92.6923,VALID,0,VALID,23.389,VALID,239,VALID,0.503125,
2011-03-14, 02:03:04,VALID,997.91,VALID,0,VALID,92.6923,VALID,0,VALID,23.3695,VALID,239,VALID,0.615234,
2011-03-14, 02:04:04,VALID,997.918,VALID,0.5,VALID,92.7075,VALID,0.112286,VALID,23.3677,VALID,239,VALID,0.630469,
2011-03-14, 02:05:04,VALID,997.921,VALID,0,VALID,92.7304,VALID,0,VALID,23.35,VALID,239,VALID,0.469531,
2011-03-14, 02:06:04,VALID,997.885,VALID,0,VALID,92.7762,VALID,0,VALID,23.3695,VALID,239,VALID,0.410156,
2011-03-14, 02:07:04,VALID,997.881,VALID,0,VALID,92.7533,VALID,0,VALID,23.3695,VALID,239,VALID,0.209375,
2011-03-14, 02:08:04,VALID,997.868,VALID,0,VALID,92.7685,VALID,0,VALID,23.3482,VALID,239,VALID,0.271875,
2011-03-14, 02:09:04,VALID,997.901,VALID,0,VALID,92.8067,VALID,0,VALID,23.3677,VALID,239,VALID,0.264844,
2011-03-14, 02:10:04,VALID,997.829,VALID,0,VALID,92.8143,VALID,0,VALID,23.389,VALID,239,VALID,0.367969,
2011-03-14, 02:11:04,VALID,997.824,VALID,0,VALID,92.8525,VALID,0,VALID,23.389,VALID,239,VALID,0.374609,
2011-03-14, 02:12:04,VALID,997.79,VALID,0,VALID,92.822,VALID,0,VALID,23.3482,VALID,239,VALID,0.438281,
2011-03-14, 02:13:04,VALID,997.827,VALID,0,VALID,92.8525,VALID,0,VALID,23.3908,VALID,239,VALID,0.429688,
2011-03-14, 02:14:04,VALID,997.791,VALID,0,VALID,92.8754,VALID,0,VALID,23.3695,VALID,219,VALID,0.44375,
2011-03-14, 02:15:04,VALID,997.754,VALID,0,VALID,92.8677,VALID,0,VALID,23.3695,VALID,219,VALID,0.349609,
2011-03-14, 02:16:04,VALID,997.743,VALID,0,VALID,92.8754,VALID,0,VALID,23.3482,VALID,219,VALID,0.312109,
2011-03-14, 02:17:04,VALID,997.751,VALID,0,VALID,92.883,VALID,0,VALID,23.35,VALID,219,VALID,0.266797,
2011-03-14, 02:18:04,VALID,997.73,VALID,0,VALID,92.8983,VALID,0,VALID,23.35,VALID,219,VALID,0,
2011-03-14, 02:19:04,VALID,997.735,VALID,0,VALID,92.8906,VALID,0,VALID,23.35,VALID,219,VALID,0.485938,
2011-03-14, 02:20:04,VALID,997.686,VALID,0,VALID,92.9135,VALID,0.112286,VALID,23.3287,VALID,219,VALID,0.321484,
2011-03-14, 02:21:04,VALID,997.693,VALID,0,VALID,92.9135,VALID,0,VALID,23.3482,VALID,219,VALID,0.153906,
2011-03-14, 02:22:04,VALID,997.7,VALID,0,VALID,92.9288,VALID,0,VALID,23.35,VALID,219,VALID,0,
2011-03-14, 02:23:04,VALID,997.657,VALID,0,VALID,92.9135,VALID,0,VALID,23.3695,VALID,219,VALID,0,
2011-03-14, 02:24:04,VALID,997.661,VALID,0,VALID,92.944,VALID,0,VALID,23.3287,VALID,219,VALID,0,
2011-03-14, 02:25:04,VALID,997.643,VALID,0,VALID,92.9364,VALID,0,VALID,23.3695,VALID,219,VALID,0,
2011-03-14, 02:26:04,VALID,997.636,VALID,0,VALID,92.9364,VALID,0,VALID,23.3695,VALID,219,VALID,0.264062,
2011-03-14, 02:27:04,VALID,997.647,VALID,0,VALID,92.9364,VALID,0,VALID,23.3695,VALID,219,VALID,0.439453,
2011-03-14, 02:28:04,VALID,997.619,VALID,0,VALID,92.9364,VALID,0,VALID,23.3695,VALID,219,VALID,0.567578,
2011-03-14, 02:29:04,VALID,997.627,VALID,0.5,VALID,92.9593,VALID,0,VALID,23.3695,VALID,219,VALID,0.677344,
2011-03-14, 02:30:04,VALID,997.635,VALID,0,VALID,92.9669,VALID,0,VALID,23.389,VALID,219,VALID,0.782422,
2011-03-14, 02:31:04,VALID,997.587,VALID,0,VALID,92.944,VALID,0,VALID,23.3677,VALID,218,VALID,0.737891,
2011-03-14, 02:32:04,VALID,997.614,VALID,0,VALID,92.9745,VALID,0,VALID,23.389,VALID,218,VALID,0.473047,
2011-03-14, 02:33:04,VALID,997.6,VALID,0,VALID,92.9898,VALID,0,VALID,23.4085,VALID,218,VALID,0.517969,
2011-03-14, 02:34:04,VALID,997.615,VALID,0,VALID,92.9898,VALID,0,VALID,23.4085,VALID,192,VALID,0.379687,
2011-03-14, 02:35:04,VALID,997.591,VALID,0,VALID,92.9974,VALID,0,VALID,23.4085,VALID,84,VALID,0.269531,
2011-03-14, 02:36:04,VALID,997.612,VALID,0,VALID,92.9898,VALID,0,VALID,23.428,VALID,84,VALID,0.350391,
2011-03-14, 02:37:04,VALID,997.629,VALID,0,VALID,92.9974,VALID,0,VALID,23.428,VALID,84,VALID,0.123047,
2011-03-14, 02:38:04,VALID,997.604,VALID,0,VALID,92.9974,VALID,0,VALID,23.4263,VALID,84,VALID,0.318359,
2011-03-14, 02:39:04,VALID,997.636,VALID,0,VALID,93.0127,VALID,0,VALID,23.428,VALID,84,VALID,0.212109,
2011-03-14, 02:40:04,VALID,997.6,VALID,0,VALID,93.0356,VALID,0,VALID,23.428,VALID,84,VALID,0.470703,
2011-03-14, 02:41:04,VALID,997.593,VALID,0,VALID,93.0508,VALID,0,VALID,23.428,VALID,84,VALID,0.10625,
2011-03-14, 02:42:04,VALID,997.59,VALID,0,VALID,93.028,VALID,0,VALID,23.428,VALID,84,VALID,0,
2011-03-14, 02:43:04,VALID,997.596,VALID,0,VALID,93.028,VALID,0,VALID,23.4085,VALID,84,VALID,0,
2011-03-14, 02:44:04,VALID,997.598,VALID,0,VALID,93.0508,VALID,0,VALID,23.3695,VALID,84,VALID,0,
2011-03-14, 02:45:05,VALID,997.576,VALID,0,VALID,93.0432,VALID,0,VALID,23.3695,VALID,84,VALID,0,
2011-03-14, 02:46:05,VALID,997.609,VALID,0,VALID,93.0508,VALID,0,VALID,23.3908,VALID,84,VALID,0,
2011-03-14, 02:47:05,VALID,997.595,VALID,0,VALID,93.0508,VALID,0,VALID,23.4103,VALID,84,VALID,0,
2011-03-14, 02:48:05,VALID,997.614,VALID,0,VALID,93.0585,VALID,0,VALID,23.3908,VALID,84,VALID,0,
2011-03-14, 02:49:05,VALID,997.634,VALID,0,VALID,93.0432,VALID,0,VALID,23.4103,VALID,84,VALID,0,
2011-03-14, 02:50:05,VALID,997.637,VALID,0,VALID,93.0814,VALID,0,VALID,23.3908,VALID,84,VALID,0,
2011-03-14, 02:51:05,VALID,997.661,VALID,0,VALID,93.0661,VALID,0,VALID,23.3908,VALID,84,VALID,0,
2011-03-14, 02:52:05,VALID,997.648,VALID,0,VALID,93.0661,VALID,0,VALID,23.3713,VALID,84,VALID,0,
2011-03-14, 02:53:05,VALID,997.636,VALID,0,VALID,93.0585,VALID,0,VALID,23.3908,VALID,84,VALID,0,
2011-03-14, 02:54:05,VALID,997.646,VALID,0,VALID,93.0737,VALID,0,VALID,23.3695,VALID,84,VALID,0,
2011-03-14, 02:55:05,VALID,997.645,VALID,0,VALID,93.0814,VALID,0,VALID,23.3908,VALID,84,VALID,0,
2011-03-14, 02:56:05,VALID,997.673,VALID,0,VALID,93.0737,VALID,0,VALID,23.4103,VALID,84,VALID,0,
2011-03-14, 02:57:05,VALID,997.636,VALID,0,VALID,93.0737,VALID,0,VALID,23.4103,VALID,84,VALID,0,
2011-03-14, 02:58:05,VALID,997.647,VALID,0,VALID,93.1119,VALID,0,VALID,23.3908,VALID,84,VALID,0,
2011-03-14, 02:59:05,VALID,997.624,VALID,0,VALID,93.089,VALID,0,VALID,23.389,VALID,84,VALID,0,
2011-03-14, 03:00:05,VALID,997.604,VALID,0.5,VALID,93.0966,VALID,0,VALID,23.389,VALID,84,VALID,0,
2011-03-14, 03:01:05,VALID,997.619,VALID,0,VALID,93.0966,VALID,0,VALID,23.3677,VALID,84,VALID,0,
2011-03-14, 03:02:05,VALID,997.603,VALID,0,VALID,93.0966,VALID,0,VALID,23.3677,VALID,84,VALID,0,
2011-03-14, 03:03:05,VALID,997.565,VALID,0,VALID,93.1119,VALID,0,VALID,23.389,VALID,84,VALID,0,
2011-03-14, 03:04:05,VALID,997.533,VALID,0,VALID,93.1043,VALID,0,VALID,23.3695,VALID,84,VALID,0,
2011-03-14, 03:05:05,VALID,997.514,VALID,0,VALID,93.1195,VALID,0,VALID,23.389,VALID,84,VALID,0,
2011-03-14, 03:06:05,VALID,997.502,VALID,0,VALID,93.1195,VALID,0,VALID,23.3695,VALID,84,VALID,0,
2011-03-14, 03:07:05,VALID,997.486,VALID,0,VALID,93.1119,VALID,0,VALID,23.389,VALID,84,VALID,0.497266,
2011-03-14, 03:08:05,VALID,997.453,VALID,0,VALID,93.1119,VALID,0,VALID,23.3872,VALID,84,VALID,0.603906,
2011-03-14, 03:09:05,VALID,997.431,VALID,0,VALID,93.0966,VALID,0,VALID,23.4085,VALID,350,VALID,0.406641,
2011-03-14, 03:10:05,VALID,997.44,VALID,0,VALID,93.1348,VALID,0,VALID,23.4085,VALID,350,VALID,0.458203,
2011-03-14, 03:11:05,VALID,997.437,VALID,0,VALID,93.1348,VALID,0,VALID,23.4085,VALID,350,VALID,0.278906,
2011-03-14, 03:12:05,VALID,997.44,VALID,0,VALID,93.1348,VALID,0,VALID,23.4085,VALID,350,VALID,0,
2011-03-14, 03:13:05,VALID,997.44,VALID,0,VALID,93.1119,VALID,0,VALID,23.4085,VALID,350,VALID,0,
2011-03-14, 03:14:05,VALID,997.401,VALID,0,VALID,93.1271,VALID,0,VALID,23.3677,VALID,350,VALID,0,
2011-03-14, 03:15:05,VALID,997.387,VALID,0,VALID,93.1424,VALID,0,VALID,23.389,VALID,350,VALID,0,
2011-03-14, 03:16:05,VALID,997.39,VALID,0,VALID,93.1348,VALID,0,VALID,23.389,VALID,350,VALID,0,
2011-03-14, 03:17:05,VALID,997.386,VALID,0,VALID,93.1424,VALID,0,VALID,23.389,VALID,350,VALID,0,
2011-03-14, 03:18:05,VALID,997.388,VALID,0,VALID,93.15,VALID,0,VALID,23.35,VALID,350,VALID,0,
2011-03-14, 03:19:05,VALID,997.365,VALID,0,VALID,93.1271,VALID,0,VALID,23.3695,VALID,350,VALID,0,
2011-03-14, 03:20:05,VALID,997.381,VALID,0,VALID,93.1348,VALID,0,VALID,23.35,VALID,350,VALID,0,
2011-03-14, 03:21:05,VALID,997.33,VALID,0,VALID,93.1577,VALID,0,VALID,23.3287,VALID,350,VALID,0,
2011-03-14, 03:22:05,VALID,997.321,VALID,0,VALID,93.15,VALID,0,VALID,23.35,VALID,350,VALID,0,
2011-03-14, 03:23:05,VALID,997.31,VALID,0,VALID,93.1348,VALID,0,VALID,23.35,VALID,350,VALID,0,
2011-03-14, 03:24:05,VALID,997.282,VALID,0,VALID,93.1729,VALID,0,VALID,23.35,VALID,350,VALID,0,
2011-03-14, 03:25:05,VALID,997.259,VALID,0,VALID,93.1424,VALID,0,VALID,23.35,VALID,350,VALID,0,
2011-03-14, 03:26:05,VALID,997.284,VALID,0,VALID,93.15,VALID,0,VALID,23.3695,VALID,350,VALID,0.183984,
2011-03-14, 03:27:05,VALID,997.298,VALID,0,VALID,93.1577,VALID,0,VALID,23.3695,VALID,350,VALID,0.689062,
2011-03-14, 03:28:05,VALID,997.293,VALID,0,VALID,93.1577,VALID,0,VALID,23.3695,VALID,350,VALID,0.658203,
2011-03-14, 03:29:05,VALID,997.27,VALID,0,VALID,93.1653,VALID,0,VALID,23.389,VALID,350,VALID,0.470313,
2011-03-14, 03:30:05,VALID,997.282,VALID,0,VALID,93.1729,VALID,0.112286,VALID,23.3872,VALID,350,VALID,0.641016,
2011-03-14, 03:31:05,VALID,997.254,VALID,0,VALID,93.1729,VALID,0,VALID,23.389,VALID,102,VALID,0.603906,
2011-03-14, 03:32:05,VALID,997.284,VALID,0,VALID,93.1729,VALID,0,VALID,23.3677,VALID,102,VALID,0.694922,
2011-03-14, 03:33:05,VALID,997.254,VALID,0,VALID,93.1577,VALID,0,VALID,23.4085,VALID,102,VALID,0.76875,
2011-03-14, 03:34:05,VALID,997.273,VALID,0,VALID,93.1729,VALID,0,VALID,23.4085,VALID,102,VALID,0.6125,
2011-03-14, 03:35:05,VALID,997.268,VALID,0,VALID,93.1653,VALID,0,VALID,23.3872,VALID,102,VALID,0.908203,
2011-03-14, 03:36:05,VALID,997.259,VALID,0,VALID,93.1805,VALID,0,VALID,23.389,VALID,102,VALID,0.738281,
2011-03-14, 03:37:05,VALID,997.271,VALID,0,VALID,93.1805,VALID,0,VALID,23.3872,VALID,102,VALID,0.870703,
2011-03-14, 03:38:05,VALID,997.266,VALID,0,VALID,93.1882,VALID,0,VALID,23.428,VALID,102,VALID,0.79375,
2011-03-14, 03:39:05,VALID,997.27,VALID,0,VALID,93.1958,VALID,0,VALID,23.4085,VALID,99,VALID,0.689844,
2011-03-14, 03:40:05,VALID,997.301,VALID,0,VALID,93.1958,VALID,0,VALID,23.4085,VALID,99,VALID,0.499609,
2011-03-14, 03:41:05,VALID,997.296,VALID,0,VALID,93.1882,VALID,0,VALID,23.4085,VALID,99,VALID,0.125,
2011-03-14, 03:42:05,VALID,997.295,VALID,0,VALID,93.1805,VALID,0,VALID,23.4085,VALID,99,VALID,0.282422,
2011-03-14, 03:43:05,VALID,997.294,VALID,0,VALID,93.1958,VALID,0,VALID,23.4085,VALID,99,VALID,0.45,
2011-03-14, 03:44:05,VALID,997.307,VALID,0,VALID,93.1805,VALID,0,VALID,23.4085,VALID,99,VALID,0.638281,
2011-03-14, 03:45:05,VALID,997.342,VALID,0,VALID,93.2111,VALID,0,VALID,23.4085,VALID,112,VALID,0.525,
2011-03-14, 03:46:05,VALID,997.344,VALID,0,VALID,93.1882,VALID,0,VALID,23.389,VALID,128,VALID,0.577344,
2011-03-14, 03:47:05,VALID,997.351,VALID,0,VALID,93.1958,VALID,0,VALID,23.3677,VALID,128,VALID,0.184375,
2011-03-14, 03:48:05,VALID,997.384,VALID,0,VALID,93.2111,VALID,0,VALID,23.3872,VALID,128,VALID,0.495703,